Weather History for Chillicothe, MO

Change the Weather History Date:

Tuesday, May 21, 2013

  Actual Average (KIRK) Record (KIRK)
Temperature  
Mean Temperature 67 °F 64 °F  
Max Temperature 77 °F 74 °F 95 °F (1925)
Min Temperature 57 °F 53 °F 33 °F (1967)
Degree Days  
Heating Degree Days 0 4  
Month to date heating degree days 127  
Since 1 July heating degree days 5817  
Cooling Degree Days 2 2  
Month to date cooling degree days 28  
Year to date cooling degree days 35  
Growing Degree Days 17 (Base 50)    
Moisture  
Dew Point 53 °F    
Average Humidity 62    
Maximum Humidity 90    
Minimum Humidity 42    
Precipitation  
Precipitation 0.00 in 0.15 in 1.99 in (1982)
Month to date precipitation 3.32  
Year to date precipitation 12.51  
Sea Level Pressure  
Sea Level Pressure 29.70 in    
Wind  
Wind Speed 6 mph (SW)    
Max Wind Speed 13 mph    
Max Gust Speed 23 mph    
T = Trace of Precipitation, MM = Missing Value Source: NWS Daily Summary

Daily Weather History Graph

Daily Weather History Graph

Search for Another Location

Airport:

Trip Planner

Search our weather history database for the weather conditions in past years. The results will help you decide how hot, cold, wet, or windy it might be!

Date:

Astronomy

May. 21, 2013 Rise Set
Actual Time 5:54 AM CDT 8:28 PM CDT
Civil Twilight 5:23 AM CDT 8:59 PM CDT
Nautical Twilight 4:44 AM CDT 9:38 PM CDT
Astronomical Twilight 4:01 AM CDT 10:21 PM CDT
Moon 4:42 PM CDT (5/21) 3:22 AM CDT (5/21)
Length of Visible Light 15h 36m
Length of Day
14h 33m
Waxing Gibbous, 84% of the Moon is Illuminated
May 21
Waxing Gibbous
May 24
Full
May 31
Last Quarter
Jun 8
New
Jun 16
First Quarter

Hourly Weather History & Observations

Time (CDT) Temp. Dew Point Humidity Pressure Visibility Wind Dir Wind Speed Gust Speed Precip Events Conditions
12:52 AM 66.9 °F 63.0 °F 87% 29.64 in - SSW 5.8 mph - N/A   Unknown
1:52 AM 64.9 °F 62.1 °F 90% 29.64 in - South 5.8 mph - N/A   Unknown
2:52 AM 66.0 °F 59.0 °F 78% 29.65 in - WSW 5.8 mph - N/A   Unknown
3:52 AM 64.9 °F 54.0 °F 68% 29.65 in - Calm Calm - N/A   Unknown
4:52 AM 62.1 °F 52.0 °F 70% 29.68 in - SW 4.6 mph - N/A   Unknown
5:52 AM 61.0 °F 51.1 °F 70% 29.70 in - Calm Calm - N/A   Unknown
6:52 AM 61.0 °F 51.1 °F 70% 29.72 in - Variable 4.6 mph - N/A   Unknown
7:52 AM 63.0 °F 53.1 °F 70% 29.73 in - Variable 5.8 mph - N/A   Unknown
8:52 AM 64.9 °F 53.1 °F 65% 29.74 in - SW 5.8 mph - N/A   Unknown
9:52 AM 66.9 °F 53.1 °F 61% 29.74 in - Variable 5.8 mph - N/A   Unknown
10:52 AM 69.1 °F 54.0 °F 58% 29.75 in - SW 8.1 mph - N/A   Unknown
11:52 AM 71.1 °F 54.0 °F 55% 29.76 in - SSW 10.4 mph 16.1 mph N/A   Unknown
12:52 PM 72.0 °F 54.0 °F 53% 29.74 in - Variable 6.9 mph - N/A   Unknown
1:52 PM 73.0 °F 53.1 °F 49% 29.72 in - SSW 10.4 mph - N/A   Unknown
2:52 PM 73.9 °F 52.0 °F 46% 29.72 in - Variable 6.9 mph - N/A   Unknown
3:52 PM 75.9 °F 52.0 °F 43% 29.71 in - SSW 12.7 mph 17.3 mph N/A   Unknown
4:52 PM 73.9 °F 51.1 °F 45% 29.70 in - SSW 12.7 mph 23.0 mph N/A   Unknown
5:52 PM 75.9 °F 51.1 °F 42% 29.70 in - WSW 8.1 mph 16.1 mph N/A   Unknown
6:52 PM 73.0 °F 50.0 °F 44% 29.69 in - Variable 6.9 mph - N/A   Unknown
7:52 PM 71.1 °F 50.0 °F 47% 29.69 in - Variable 3.5 mph - N/A   Unknown
8:52 PM 68.0 °F 48.9 °F 50% 29.69 in - NW 5.8 mph - N/A   Unknown
9:52 PM 63.0 °F 51.1 °F 65% 29.72 in - Calm Calm - N/A   Unknown
10:52 PM 59.0 °F 52.0 °F 78% 29.72 in - Calm Calm - N/A   Unknown
11:52 PM 57.0 °F 51.1 °F 81% 29.71 in - Calm Calm - N/A   Unknown